Weather Service Report


612 
ASUS44 KJAN 250610
RWRMS 

MISSISSIPPI HOURLY WEATHER ROUNDUP
NATIONAL WEATHER SERVICE JACKSON MS
1200 AM CST SAT FEB 25 2017

NOTE: "FAIR: INDICATES FEW OR NO CLOUDS BELOW 12,000 FEET WITH NO
SIGNIFICANT WEATHER AND/OR OBSTRUCTIONS TO VISIBILITY.

MSZ001>002-007>008-010>013-018>021-025>028-034>036-250700-
NORTHWEST MISSISSIPPI
  
CITY           SKY/WX    TMP DP  RH WIND       PRES   REMARKS
BATESVILLE     FAIR      55  36  48 NW5G16    29.89R                  
CLEVELAND      FAIR      53  36  52 NW17      29.92R                  
GREENWOOD      MOCLDY    57  37  47 NW14G22   29.89R                  
6HR MIN TEMP:  57; 6HR MAX TEMP:  73; 6HR PCP:  0.05;                

GREENVILLE     PTCLDY    53  35  50 NW22G32   29.92R                  
6HR MIN TEMP:  53; 6HR MAX TEMP:  70;                                

OXFORD         FAIR      54  32  43 NW14G24   29.89R                  
TUNICA         CLEAR     50  37  62 NW9       29.91R                  
WINONA         FAIR      55  42  59 NW8G16    29.87R                  
$$

MSZ003>006-009-014>017-022>024-029>033-037>039-250700-
NORTHEAST MISSISSIPPI
  
CITY           SKY/WX    TMP DP  RH WIND       PRES   REMARKS
COLUMBUS AFB   LGT RAIN  64  59  82 NW10      29.78R                  
6HR MIN TEMP:  64; 6HR MAX TEMP:  74;                                

CORINTH        MOCLDY    57  30  35 W15G22    29.82R                  
GOLDN TRIANGLE CLOUDY    63  54  72 NW13      29.76R                  
STARKVILLE     CLOUDY    63  55  77 NW9G16    29.82R                  
TUPELO         MOCLDY    61  43  51 NW10      29.81R                  
6HR MIN TEMP:  61; 6HR MAX TEMP:  73;                                

$$

MSZ040-058-250700-
CENTRAL MISSISSIPPI
  
CITY           SKY/WX    TMP DP  RH WIND       PRES   REMARKS
JACKSON INTL   CLOUDY    63  53  70 N21G29    29.87R                  
6HR MIN TEMP:  63; 6HR MAX TEMP:  76; 6HR PCP:  0.09;                

JACKSON HAWKNS CLOUDY    62  51  67 NW13G26   29.87R                  
6HR MIN TEMP:  62; 6HR MAX TEMP:  75; 6HR PCP:  0.01;                

MADISON        MOCLDY   N/A N/A N/A NW17G24   29.87R                  
MERIDIAN KEY   PTCLDY    65  62  90 SW7       29.79S                  
6HR MIN TEMP:  65; 6HR MAX TEMP:  76;                                

MERIDIAN NAS   CLEAR     68  58  70 SW6       29.78                   
6HR MIN TEMP:  68; 6HR MAX TEMP:  79;                                

VICKSBURG VKS  CLOUDY    61  39  44 N16       29.90R                  
$$

MSZ059>079-250700-
SOUTH MISSISSIPPI
  
CITY           SKY/WX    TMP DP  RH WIND       PRES   REMARKS
BROOKHAVEN     CLOUDY    64  57  77 NW13G20   29.88R                  
HATTIESBURG    CLEAR     65  60  84 SW6       29.83R                  
6HR MIN TEMP:  64; 6HR MAX TEMP:  73;                                

LAUREL         FAIR      63  63 100 SW5       29.82S                  
MCCOMB         CLOUDY    65  58  78 W6        29.85R                  
6HR MIN TEMP:  64; 6HR MAX TEMP:  73;                                

NATCHEZ        MOCLDY    63  46  55 NW16G23   29.91R                  
6HR MIN TEMP:  63; 6HR MAX TEMP:  73; 6HR PCP:  0.02;                

PINE BELT      CLEAR     64  57  77 SW5       29.84R                  
6HR MIN TEMP:  63; 6HR MAX TEMP:  73;                                

$$

MSZ080>082-250700-
COASTAL MISSISSIPPI
  
CITY           SKY/WX    TMP DP  RH WIND       PRES   REMARKS
BILOXI         CLEAR     68  65  90 W8        29.84R                  
6HR MIN TEMP:  67; 6HR MAX TEMP:  70;                                

PASCAGOULA     CLOUDY    68  64  87 SW5       29.85R                  
6HR MIN TEMP:  67; 6HR MAX TEMP:  69;                                

GULFPORT       CLEAR     67  65  93 VRB3      29.84R                  
6HR MIN TEMP:  67; 6HR MAX TEMP:  70;                                

$$

LAZ007>009-015>016-023>026-250700-
NORTHEAST LOUISIANA
  
CITY           SKY/WX    TMP DP  RH WIND       PRES   REMARKS
BASTROP        FAIR      55  35  48 NW8       29.97R                  
TALLULAH/VBURG MOCLDY    59  41  51 NW9       29.93R                  
6HR MIN TEMP:  59; 6HR MAX TEMP:  74; 6HR PCP:  0.17;                

VIDALIA        FAIR      63  47  56 NW14G24   29.91R                  
$$
  

Return to Home page


Western Regional Climate Center, wrcc@dri.edu